Time,TemperatureF,DewpointF,PressureIn,WindDirection,WindDirectionDegrees,WindSpeedMPH,WindSpeedGustMPH,Humidity,HourlyPrecipIn,Conditions,Clouds,dailyrainin,SoftwareType,DateUTC
2013-02-12 00:07:00,37.0,31.0,29.72,North,351,0.0,10.0,80,0.00,,,0.00,weatherlink.com 1.10,2013-02-12 05:07:00,
2013-02-12 00:22:00,37.4,31.0,29.71,SSW,197,1.0,12.0,79,0.00,,,0.00,weatherlink.com 1.10,2013-02-12 05:22:00,
2013-02-12 00:37:00,37.1,31.0,29.71,South,185,6.0,10.0,78,0.00,,,0.00,weatherlink.com 1.10,2013-02-12 05:37:00,
2013-02-12 00:52:00,36.9,31.0,29.70,SW,227,2.0,6.0,78,0.00,,,0.00,weatherlink.com 1.10,2013-02-12 05:52:00,
2013-02-12 01:07:00,36.8,31.0,29.71,South,182,1.0,6.0,78,0.00,,,0.00,weatherlink.com 1.10,2013-02-12 06:07:00,
2013-02-12 01:22:00,36.7,30.0,29.71,West,261,0.0,7.0,78,0.00,,,0.00,weatherlink.com 1.10,2013-02-12 06:22:00,
2013-02-12 01:37:00,36.4,30.0,29.71,NE,47,0.0,3.0,79,0.00,,,0.00,weatherlink.com 1.10,2013-02-12 06:37:00,
2013-02-12 01:52:00,36.4,31.0,29.72,South,183,2.0,3.0,80,0.00,,,0.00,weatherlink.com 1.10,2013-02-12 06:52:00,
2013-02-12 02:07:00,36.7,31.0,29.72,South,175,1.0,8.0,79,0.00,,,0.00,weatherlink.com 1.10,2013-02-12 07:07:00,
2013-02-12 02:22:00,36.8,31.0,29.72,SSW,195,1.0,4.0,78,0.00,,,0.00,weatherlink.com 1.10,2013-02-12 07:22:00,
2013-02-12 02:37:00,37.0,30.0,29.72,SSE,149,2.0,7.0,77,0.00,,,0.00,weatherlink.com 1.10,2013-02-12 07:37:00,
2013-02-12 02:52:00,36.9,30.0,29.71,SSW,192,2.0,4.0,77,0.00,,,0.00,weatherlink.com 1.10,2013-02-12 07:52:00,
2013-02-12 03:22:00,37.2,30.0,29.71,SSW,194,0.0,11.0,75,0.00,,,0.00,weatherlink.com 1.10,2013-02-12 08:22:00,
2013-02-12 03:37:00,37.0,30.0,29.71,SSW,209,0.0,6.0,76,0.00,,,0.00,weatherlink.com 1.10,2013-02-12 08:37:00,
2013-02-12 03:52:00,37.1,30.0,29.71,ENE,76,2.0,10.0,74,0.00,,,0.00,weatherlink.com 1.10,2013-02-12 08:52:00,
2013-02-12 04:07:00,37.5,29.0,29.71,NNW,346,3.0,14.0,71,0.00,,,0.00,weatherlink.com 1.10,2013-02-12 09:07:00,
2013-02-12 04:22:00,37.0,29.0,29.71,SW,235,0.0,12.0,73,0.00,,,0.00,weatherlink.com 1.10,2013-02-12 09:22:00,
2013-02-12 04:37:00,37.2,29.0,29.71,WSW,254,0.0,8.0,72,0.00,,,0.00,weatherlink.com 1.10,2013-02-12 09:37:00,
2013-02-12 04:52:00,37.1,28.0,29.72,ENE,69,3.0,8.0,71,0.00,,,0.00,weatherlink.com 1.10,2013-02-12 09:52:00,
2013-02-12 05:07:00,37.3,29.0,29.72,South,190,2.0,11.0,71,0.00,,,0.00,weatherlink.com 1.10,2013-02-12 10:07:00,
2013-02-12 05:22:00,37.0,29.0,29.73,NW,318,0.0,11.0,72,0.00,,,0.00,weatherlink.com 1.10,2013-02-12 10:22:00,
2013-02-12 05:37:00,37.4,28.0,29.72,South,190,2.0,16.0,70,0.00,,,0.00,weatherlink.com 1.10,2013-02-12 10:37:00,
2013-02-12 05:52:00,37.0,28.0,29.72,South,172,7.0,8.0,71,0.00,,,0.00,weatherlink.com 1.10,2013-02-12 10:52:00,
2013-02-12 06:08:00,36.8,28.0,29.73,WSW,255,3.0,8.0,71,0.00,,,0.00,weatherlink.com 1.10,2013-02-12 11:08:00,
2013-02-12 06:23:00,37.0,28.0,29.73,West,264,0.0,9.0,70,0.00,,,0.00,weatherlink.com 1.10,2013-02-12 11:23:00,
2013-02-12 06:38:00,37.0,28.0,29.74,WSW,240,2.0,10.0,71,0.00,,,0.00,weatherlink.com 1.10,2013-02-12 11:38:00,
2013-02-12 06:53:00,36.8,27.0,29.74,SSW,211,1.0,9.0,69,0.00,,,0.00,weatherlink.com 1.10,2013-02-12 11:53:00,
2013-02-12 07:08:00,36.6,28.0,29.75,NNW,348,3.0,12.0,70,0.00,,,0.00,weatherlink.com 1.10,2013-02-12 12:08:00,
2013-02-12 07:23:00,36.7,28.0,29.75,South,186,2.0,10.0,70,0.00,,,0.00,weatherlink.com 1.10,2013-02-12 12:23:00,
2013-02-12 07:38:00,36.8,27.0,29.76,SW,219,1.0,9.0,68,0.00,,,0.00,weatherlink.com 1.10,2013-02-12 12:38:00,
2013-02-12 07:53:00,37.0,27.0,29.76,SSW,212,1.0,14.0,68,0.00,,,0.00,weatherlink.com 1.10,2013-02-12 12:53:00,
2013-02-12 08:08:00,37.4,28.0,29.77,NW,316,1.0,11.0,68,0.00,,,0.00,weatherlink.com 1.10,2013-02-12 13:08:00,
2013-02-12 08:23:00,37.4,28.0,29.78,ENE,59,3.0,8.0,68,0.00,,,0.00,weatherlink.com 1.10,2013-02-12 13:23:00,
2013-02-12 08:38:00,37.5,27.0,29.79,South,187,1.0,12.0,66,0.00,,,0.00,weatherlink.com 1.10,2013-02-12 13:38:00,
2013-02-12 08:53:00,37.7,27.0,29.79,SSW,212,5.0,16.0,65,0.00,,,0.00,weatherlink.com 1.10,2013-02-12 13:53:00,
2013-02-12 09:08:00,37.5,27.0,29.79,SSW,209,1.0,7.0,67,0.00,,,0.00,weatherlink.com 1.10,2013-02-12 14:08:00,
2013-02-12 09:23:00,37.8,28.0,29.80,SSW,213,3.0,7.0,67,0.00,,,0.00,weatherlink.com 1.10,2013-02-12 14:23:00,
2013-02-12 09:38:00,37.7,28.0,29.81,SSW,211,5.0,7.0,68,0.00,,,0.00,weatherlink.com 1.10,2013-02-12 14:38:00,
2013-02-12 09:53:00,38.2,28.0,29.81,South,177,5.0,11.0,67,0.01,,,0.01,weatherlink.com 1.10,2013-02-12 14:53:00,
2013-02-12 10:08:00,37.5,28.0,29.81,West,261,0.0,9.0,68,0.01,,,0.01,weatherlink.com 1.10,2013-02-12 15:08:00,
2013-02-12 10:23:00,37.4,28.0,29.82,SW,221,2.0,10.0,69,0.01,,,0.01,weatherlink.com 1.10,2013-02-12 15:23:00,
2013-02-12 10:38:00,37.8,28.0,29.83,SE,130,1.0,7.0,68,0.01,,,0.01,weatherlink.com 1.10,2013-02-12 15:38:00,
2013-02-12 10:53:00,37.7,28.0,29.83,SSW,197,7.0,12.0,68,0.01,,,0.02,weatherlink.com 1.10,2013-02-12 15:53:00,
2013-02-12 11:08:00,38.0,28.0,29.83,SSW,200,5.0,8.0,68,0.01,,,0.02,weatherlink.com 1.10,2013-02-12 16:08:00,
2013-02-12 11:23:00,38.0,28.0,29.83,NW,311,1.0,8.0,68,0.01,,,0.02,weatherlink.com 1.10,2013-02-12 16:23:00,
2013-02-12 11:38:00,38.9,29.0,29.84,WNW,303,1.0,10.0,68,0.01,,,0.02,weatherlink.com 1.10,2013-02-12 16:38:00,
2013-02-12 11:53:00,38.8,28.0,29.84,NNE,25,4.0,11.0,66,0.00,,,0.02,weatherlink.com 1.10,2013-02-12 16:53:00,
2013-02-12 12:08:00,38.3,28.0,29.84,SSW,207,5.0,14.0,67,0.00,,,0.02,weatherlink.com 1.10,2013-02-12 17:08:00,
2013-02-12 12:23:00,38.5,29.0,29.84,SSW,213,2.0,11.0,68,0.00,,,0.02,weatherlink.com 1.10,2013-02-12 17:23:00,
2013-02-12 12:38:00,38.8,29.0,29.84,SSW,212,2.0,8.0,67,0.01,,,0.03,weatherlink.com 1.10,2013-02-12 17:38:00,
2013-02-12 12:53:00,38.7,28.0,29.84,SW,221,0.0,10.0,66,0.01,,,0.03,weatherlink.com 1.10,2013-02-12 17:53:00,
2013-02-12 13:08:00,38.4,28.0,29.85,SE,130,1.0,9.0,66,0.01,,,0.03,weatherlink.com 1.10,2013-02-12 18:08:00,
2013-02-12 13:23:00,38.2,28.0,29.85,SW,223,7.0,14.0,66,0.01,,,0.03,weatherlink.com 1.10,2013-02-12 18:23:00,
2013-02-12 13:38:00,37.8,28.0,29.86,SW,215,2.0,14.0,67,0.00,,,0.03,weatherlink.com 1.10,2013-02-12 18:38:00,
2013-02-12 13:53:00,37.6,27.0,29.86,SW,224,4.0,10.0,66,0.00,,,0.03,weatherlink.com 1.10,2013-02-12 18:53:00,
2013-02-12 14:08:00,37.5,28.0,29.87,SSW,196,0.0,7.0,68,0.00,,,0.03,weatherlink.com 1.10,2013-02-12 19:08:00,
2013-02-12 14:23:00,37.1,27.0,29.88,South,173,3.0,9.0,67,0.00,,,0.03,weatherlink.com 1.10,2013-02-12 19:23:00,
2013-02-12 14:38:00,37.0,27.0,29.88,SSW,207,6.0,10.0,68,0.01,,,0.04,weatherlink.com 1.10,2013-02-12 19:38:00,
2013-02-12 14:53:00,36.8,27.0,29.88,WSW,237,0.0,7.0,69,0.01,,,0.04,weatherlink.com 1.10,2013-02-12 19:53:00,
2013-02-12 15:08:00,36.5,28.0,29.87,SSW,207,2.0,6.0,70,0.01,,,0.04,weatherlink.com 1.10,2013-02-12 20:08:00,
2013-02-12 15:23:00,36.5,28.0,29.86,South,182,1.0,7.0,70,0.01,,,0.04,weatherlink.com 1.10,2013-02-12 20:23:00,
2013-02-12 15:38:00,36.6,27.0,29.86,NE,51,1.0,5.0,69,0.00,,,0.04,weatherlink.com 1.10,2013-02-12 20:38:00,
2013-02-12 15:53:00,36.6,27.0,29.87,SSE,166,1.0,5.0,68,0.00,,,0.04,weatherlink.com 1.10,2013-02-12 20:53:00,
2013-02-12 16:08:00,36.6,28.0,29.87,South,189,3.0,6.0,70,0.00,,,0.04,weatherlink.com 1.10,2013-02-12 21:08:00,
2013-02-12 16:23:00,36.7,27.0,29.86,South,183,4.0,6.0,69,0.00,,,0.04,weatherlink.com 1.10,2013-02-12 21:23:00,
2013-02-12 16:38:00,36.4,27.0,29.85,SW,220,4.0,7.0,68,0.00,,,0.04,weatherlink.com 1.10,2013-02-12 21:38:00,
2013-02-12 16:53:00,35.9,27.0,29.85,South,181,1.0,6.0,70,0.00,,,0.04,weatherlink.com 1.10,2013-02-12 21:53:00,
2013-02-12 17:08:00,35.6,26.0,29.84,South,176,0.0,5.0,69,0.00,,,0.04,weatherlink.com 1.10,2013-02-12 22:08:00,
2013-02-12 17:23:00,35.4,27.0,29.84,South,180,2.0,3.0,70,0.00,,,0.04,weatherlink.com 1.10,2013-02-12 22:23:00,
2013-02-12 17:38:00,35.4,27.0,29.87,SSW,192,3.0,3.0,70,0.00,,,0.04,weatherlink.com 1.10,2013-02-12 22:38:00,
2013-02-12 17:54:00,35.3,27.0,29.88,South,190,2.0,3.0,71,0.00,,,0.04,weatherlink.com 1.10,2013-02-12 22:54:00,
2013-02-12 18:09:00,35.2,26.0,29.89,SW,236,4.0,7.0,70,0.00,,,0.04,weatherlink.com 1.10,2013-02-12 23:09:00,
2013-02-12 18:24:00,35.3,26.0,29.91,SW,216,4.0,6.0,70,0.00,,,0.04,weatherlink.com 1.10,2013-02-12 23:24:00,
2013-02-12 18:39:00,35.2,26.0,29.92,NNW,342,3.0,5.0,68,0.00,,,0.04,weatherlink.com 1.10,2013-02-12 23:39:00,
2013-02-12 18:54:00,35.0,26.0,29.94,WSW,253,2.0,9.0,71,0.00,,,0.04,weatherlink.com 1.10,2013-02-12 23:54:00,
2013-02-12 19:09:00,34.9,25.0,29.95,NNW,346,0.0,9.0,67,0.00,,,0.04,weatherlink.com 1.10,2013-02-13 00:09:00,
2013-02-12 19:24:00,34.7,25.0,29.95,WNW,290,0.0,5.0,68,0.00,,,0.04,weatherlink.com 1.10,2013-02-13 00:24:00,
2013-02-12 19:39:00,34.7,26.0,29.95,NNE,24,2.0,4.0,70,0.00,,,0.04,weatherlink.com 1.10,2013-02-13 00:39:00,
2013-02-12 19:54:00,34.6,25.0,29.96,South,180,0.0,4.0,68,0.00,,,0.04,weatherlink.com 1.10,2013-02-13 00:54:00,
2013-02-12 20:09:00,34.5,25.0,29.95,South,173,1.0,3.0,68,0.00,,,0.04,weatherlink.com 1.10,2013-02-13 01:09:00,
2013-02-12 20:24:00,34.5,26.0,29.94,NNE,25,1.0,3.0,70,0.00,,,0.04,weatherlink.com 1.10,2013-02-13 01:24:00,
2013-02-12 20:39:00,34.5,26.0,29.93,North,10,0.0,7.0,70,0.00,,,0.04,weatherlink.com 1.10,2013-02-13 01:39:00,
2013-02-12 20:54:00,34.4,26.0,29.92,North,355,1.0,3.0,71,0.00,,,0.04,weatherlink.com 1.10,2013-02-13 01:54:00,
2013-02-12 21:09:00,34.2,26.0,29.93,SSW,195,1.0,7.0,73,0.00,,,0.04,weatherlink.com 1.10,2013-02-13 02:09:00,
2013-02-12 21:24:00,34.3,26.0,29.93,East,92,0.0,6.0,71,0.00,,,0.04,weatherlink.com 1.10,2013-02-13 02:24:00,
2013-02-12 21:39:00,34.1,26.0,29.92,SSW,206,0.0,3.0,72,0.00,,,0.04,weatherlink.com 1.10,2013-02-13 02:39:00,
2013-02-12 21:54:00,33.9,25.0,29.91,SE,143,1.0,2.0,71,0.00,,,0.04,weatherlink.com 1.10,2013-02-13 02:54:00,
2013-02-12 22:09:00,33.9,25.0,29.91,SSW,213,2.0,9.0,69,0.00,,,0.04,weatherlink.com 1.10,2013-02-13 03:09:00,
2013-02-12 22:24:00,33.8,25.0,29.92,South,190,1.0,6.0,70,0.00,,,0.04,weatherlink.com 1.10,2013-02-13 03:24:00,
2013-02-12 22:39:00,33.6,25.0,29.92,SSW,202,1.0,9.0,71,0.00,,,0.04,weatherlink.com 1.10,2013-02-13 03:39:00,
2013-02-12 22:54:00,33.4,25.0,29.91,SSW,204,4.0,6.0,71,0.00,,,0.04,weatherlink.com 1.10,2013-02-13 03:54:00,
2013-02-12 23:09:00,33.2,24.0,29.91,SSW,213,0.0,6.0,70,0.00,,,0.04,weatherlink.com 1.10,2013-02-13 04:09:00,
2013-02-12 23:24:00,33.2,24.0,29.91,SW,219,2.0,6.0,69,0.00,,,0.04,weatherlink.com 1.10,2013-02-13 04:24:00,
2013-02-12 23:39:00,33.3,24.0,29.91,South,177,0.0,5.0,68,0.00,,,0.04,weatherlink.com 1.10,2013-02-13 04:39:00,
2013-02-12 23:54:00,33.2,24.0,29.91,SE,124,0.0,3.0,70,0.00,,,0.04,weatherlink.com 1.10,2013-02-13 04:54:00,